Location: Hohenfelde
(53.8441°N, 9.6220°E)
Time: 12:05:00
(UTC+00:00)

Cosmos 1437 Rocket - Pass Details

Date: 14 July 2020
Orbit: 506 x 562 km, 81.2° (Epoch: 09 August)

Event Time Altitude Azimuth Distance (km) Brightness Sun altitude
Rises 00:28:05 0° 349° (NNW) 2,751 7.6 -13.4°
Reaches altitude 10° 00:30:20 10° 354° (N) 1,844 6.7 -13.3°
Maximum altitude 00:34:18 53° 72° (ENE) 679 3.5 -13.2°
Enters shadow 00:38:05 11° 150° (SSE) 1,756 5.0 -13.0°
